ROMMA est une association bénévole à but non lucratif. Votre soutien est indispensable : ADHERER à ROMMA ou FAIRE un DON

Chamrousse - (38, Isère)

Massif de Belledonne (1800 m)   Longitude: 05° 52' 28" E   Latitude: 45° 06' 28" N Station partenaire n°3
 

Détail journalier du     <<     >>

Température Precipitation Humidité Pression Vent Dir Rafale Dir. rafale
Heure (°C) (mm) (%) (hPa) (km/h) (km/h)
01:00 10.404210173NNE10NNE
02:00 10.604010179NNE13NNE
03:00 9.904210169NNE13NNE
04:00 10.204110169NNE11NNE
05:00 9.9042101510NNE13NNE
06:00 9.8044101511NNE15NNE
07:00 9.5044101613NNE15NNE
08:00 10.104410169NNE11NNE
09:00 11.104410165NE15NE
10:00 11.804410162NE13NE
11:00 12.704710163NNE13NNE
12:00 13.104510153NO18ONO
13:00 13.504510154NO16NO
14:00 13.504010156ONO21ONO
15:00 14.204910157OSO24ONO
16:00 13.804410158O23NO
17:00 13.704610159ONO24NO
18:00 13.3054101412ONO27NNO
19:00 12.3061101511O29NO
20:00 10.9067101510ONO23ONO
21:00 10.306610168NO23ONO
22:00 9.706510168N15N
23:00 9.307010168N16N
minuit 9.107110156N15N

Graphique du 04-05-2008

 

Serveur OMMA